Content
SEND FEEDBACK

Daily
Averages
Monthly
Summary
United States of America

FAYETTEVILLE, TENNESSEE


Home > North America > United States > Tennessee
Elevation: 700 feet     Latitude: 35 10N     Longitude: 086 33W

WEATHER
 
SELECT A DAY
Number of Records: 307,847;   Date Range: 4/22/02 - 11/25/14
 
SHARE

PRINT THIS DATA

[ ← Previous Day ]
WEATHER ALMANAC - MARCH 14, 2014
[ Next Day → ]
[ °C ]   °F
Weather ElementAverageHighLow
Temperature50.4 °F66.2 °F (4:35 pm)32 °F (1:55 am)
Dewpoint24.5 °F32 °F (9:35 pm)15.8 °F (4:35 pm)
Humidity44.1 %87 % (1:55 am)14 % (4:35 pm)
Barometer30.16 in30.24 in (8:55 am)30.06 in (4:15 pm)
Wind Speed8.3 mph18.4 mph (2:35 pm)
Wind Gust27.6 mph (3:15 pm)
Weather ElementAverage
Visibility10 mi
Wind DirectionSSE (146.8 °)

Weather ElementTotal
Precipitation---
Heating Degree Days15.9 (Base 65)
Averaged from 71 records on March 14, 2014
WEATHER CONDITIONS BREAKOUT
WIND DIRECTION BREAKOUT
WEATHER BY HOUR - MARCH 14, 2014
[ °C ]   °F
Local TimeTemperatureDewpointHumidityBarometerVisibilityWind DirectionWind SpeedGust SpeedPrecipitationEventsConditions
12:35 AM33.8 °F28.4 °F81 %30.21 in10.0 miCalmClear
12:55 AM33.8 °F28.4 °F81 %30.20 in10.0 miCalmClear
1:15 AM33.8 °F28.4 °F81 %30.20 in10.0 miCalmClear
1:35 AM35.6 °F26.6 °F70 %30.20 in10.0 miCalmClear
1:55 AM32.0 °F28.4 °F87 %30.21 in10.0 miCalmClear
2:15 AM33.8 °F28.4 °F81 %30.20 in10.0 miSE (140°)3.5 mphClear
2:35 AM33.8 °F26.6 °F75 %30.21 in10.0 miCalmClear
2:55 AM32.0 °F26.6 °F80 %30.20 in10.0 miCalmClear
3:15 AM33.8 °F26.6 °F75 %30.20 in10.0 miSSE (150°)3.5 mphClear
3:35 AM32.0 °F28.4 °F87 %30.19 in10.0 miCalmClear
3:55 AM32.0 °F28.4 °F87 %30.19 in10.0 miSE (140°)3.5 mphClear
4:15 AM32.0 °F26.6 °F80 %30.19 in10.0 miCalmClear
4:35 AM32.0 °F26.6 °F80 %30.19 in10.0 miCalmClear
4:55 AM32.0 °F26.6 °F80 %30.19 in10.0 miSSE (150°)3.5 mphClear
5:15 AM32.0 °F26.6 °F80 %30.20 in10.0 miCalmClear
5:35 AM32.0 °F26.6 °F80 %30.20 in10.0 miCalmClear
5:55 AM32.0 °F26.6 °F80 %30.20 in10.0 miCalmClear
6:15 AM32.0 °F26.6 °F80 %30.20 in10.0 miCalmClear
6:35 AM32.0 °F26.6 °F80 %30.20 in10.0 miCalmClear
6:55 AM32.0 °F26.6 °F80 %30.20 in10.0 miCalmClear
7:15 AM32.0 °F26.6 °F80 %30.21 in10.0 miCalmClear
7:35 AM32.0 °F28.4 °F87 %30.21 in10.0 miSE (140°)3.5 mphClear
7:55 AM41.0 °F24.8 °F53 %30.22 in10.0 miSE (130°)3.5 mphClear
8:15 AM42.8 °F24.8 °F49 %30.22 in10.0 miCalmClear
8:35 AM44.6 °F26.6 °F49 %30.23 in10.0 miCalmClear
8:55 AM46.4 °F26.6 °F46 %30.24 in10.0 miSouth (180°)4.6 mphClear
9:15 AM50.0 °F21.2 °F32 %30.24 in10.0 miSouth (180°)12.7 mphClear
9:35 AM51.8 °F23.0 °F33 %30.24 in10.0 miSouth (190°)12.7 mphClear
9:55 AM51.8 °F23.0 °F33 %30.23 in10.0 miSouth (190°)11.5 mph17.3 mphClear
10:15 AM53.6 °F23.0 °F30 %30.24 in10.0 miSouth (190°)12.7 mphClear
10:35 AM55.4 °F21.2 °F26 %30.23 in10.0 miSSW (200°)13.8 mph20.7 mphClear
10:55 AM57.2 °F21.2 °F25 %30.22 in10.0 miSW (220°)15.0 mph19.6 mphClear
11:15 AM59.0 °F21.2 °F23 %30.21 in10.0 miSSW (200°)12.7 mph24.2 mphClear
11:35 AM60.8 °F21.2 °F22 %30.21 in10.0 miSSW (210°)16.1 mph25.3 mphClear
11:55 AM60.8 °F21.2 °F22 %30.20 in10.0 miSSW (210°)16.1 mph24.2 mphClear
12:15 PM60.8 °F19.4 °F20 %30.18 in10.0 miSSW (200°)17.3 mph24.2 mphClear
12:35 PM60.8 °F19.4 °F20 %30.18 in10.0 miSouth (190°)17.3 mph23.0 mphClear
12:55 PM62.6 °F19.4 °F19 %30.17 in10.0 miSSW (210°)17.3 mph23.0 mphClear
1:15 PM62.6 °F19.4 °F19 %30.16 in10.0 miSW (220°)16.1 mphClear
1:35 PM62.6 °F17.6 °F18 %30.14 in10.0 miSSW (210°)17.3 mph24.2 mphClear
1:55 PM62.6 °F19.4 °F19 %30.12 in10.0 miSW (220°)16.1 mphClear
2:15 PM64.4 °F19.4 °F18 %30.11 in10.0 miSSW (210°)17.3 mph24.2 mphClear
2:35 PM64.4 °F19.4 °F18 %30.10 in10.0 miSSW (200°)18.4 mph21.9 mphClear
2:55 PM64.4 °F19.4 °F18 %30.09 in10.0 miSW (220°)12.7 mph20.7 mphClear
3:15 PM64.4 °F17.6 °F16 %30.08 in10.0 miSSW (200°)15.0 mph27.6 mphClear
3:35 PM64.4 °F17.6 °F16 %30.08 in10.0 miSW (220°)17.3 mph24.2 mphClear
3:55 PM62.6 °F17.6 °F18 %30.07 in10.0 miSSW (210°)12.7 mph23.0 mphClear
4:15 PM64.4 °F17.6 °F16 %30.06 in10.0 miSSW (210°)18.4 mph24.2 mphClear
4:35 PM66.2 °F15.8 °F14 %30.06 in10.0 miSSW (200°)17.3 mph26.5 mphClear
4:55 PM64.4 °F17.6 °F16 %30.06 in10.0 miSW (230°)15.0 mphClear
5:15 PM62.6 °F19.4 °F19 %30.07 in10.0 miSSW (200°)15.0 mphClear
5:35 PM62.6 °F21.2 °F20 %30.07 in10.0 miSW (220°)10.4 mphClear
5:55 PM62.6 °F19.4 °F19 %30.08 in10.0 miSW (230°)15.0 mph19.6 mphClear
6:15 PM62.6 °F21.2 °F20 %30.09 in10.0 miSSW (210°)15.0 mphClear
6:35 PM60.8 °F21.2 °F22 %30.09 in10.0 miSSW (210°)12.7 mph16.1 mphClear
6:55 PM60.8 °F23.0 °F23 %30.09 in10.0 miSSW (210°)12.7 mph17.3 mphClear
7:15 PM60.8 °F23.0 °F23 %30.11 in10.0 miSW (220°)12.7 mphClear
7:35 PM60.8 °F24.8 °F25 %30.11 in10.0 miSW (220°)10.4 mphClear
7:55 PM59.0 °F28.4 °F31 %30.12 in10.0 miSW (230°)11.5 mph20.7 mphRainLight Rain
8:15 PM59.0 °F26.6 °F29 %30.12 in10.0 miWSW (250°)8.1 mphClear
8:35 PM59.0 °F30.2 °F34 %30.11 in10.0 miWSW (240°)5.8 mph16.1 mphLight Drizzle
8:55 PM57.2 °F30.2 °F36 %30.11 in10.0 miSSW (210°)6.9 mphClear
9:15 PM59.0 °F30.2 °F34 %30.11 in10.0 miSW (220°)5.8 mph18.4 mphScattered Clouds
9:35 PM57.2 °F32.0 °F38 %30.10 in10.0 miSSW (200°)9.2 mphRainLight Rain
9:55 PM57.2 °F30.2 °F36 %30.09 in10.0 miSSW (210°)10.4 mphClear
10:15 PM57.2 °F30.2 °F36 %30.09 in10.0 miSouth (190°)6.9 mphClear
10:35 PM57.2 °F30.2 °F36 %30.09 in10.0 miSouth (180°)5.8 mphClear
10:55 PM55.4 °F30.2 °F38 %30.09 in10.0 miSouth (190°)6.9 mphClear
11:15 PM51.8 °F32.0 °F47 %30.10 in10.0 miSSW (200°)3.5 mphClear
11:35 PM53.6 °F30.2 °F41 %30.10 in10.0 miSSW (210°)3.5 mphClear
11:55 PM53.6 °F30.2 °F41 %30.10 in10.0 miSSW (200°)4.6 mphClear
Hourly data recorded from KMDQ, located miles away from Fayetteville, Tennessee







STORIES FROM OUR PARTNERS